Location: Quedlinburg
(51.7921°N, 11.1414°E)
Time: 09:14:10
(UTC+02:00)

RS-44 - Pass Details

Date: 24 March 2026
Orbit: 1175 x 1510 km, 82.5° (Epoch: 17 April)

Event Time Altitude Azimuth Distance (km) Brightness Sun altitude
Rises 22:37:46 0° 347° (NNW) 4,444 ? -32.2°
Reaches altitude 10° 22:42:35 10° 12° (NNE) 3,536 ? -32.6°
Maximum altitude 22:46:42 14° 41° (NE) 3,272 ? -32.9°
Drops below altitude 10° 22:50:54 10° 71° (ENE) 3,624 ? -33.2°
Enters shadow 22:52:08 - 78° (ENE) 3,827 ? -33.3°
